TimeEDT,TemperatureF,Dew PointF,Humidity,Sea Level PressureIn,VisibilityMPH,Wind Direction,Wind SpeedMPH,Gust SpeedMPH,PrecipitationIn,Events,Conditions,WindDirDegrees,DateUTC
12:00 AM,51.8,50.0,94,30.13,15.0,ESE,2.3,-,N/A,,Scattered Clouds,120,2013-09-27 04:00:00
1:00 AM,50.0,48.2,94,30.13,15.0,SE,2.3,-,N/A,,Scattered Clouds,130,2013-09-27 05:00:00
2:00 AM,45,43,89,30.13,15,Calm,Calm,,,,Clear,,2013-09-27 06:00:00
2:00 AM,51.8,46.4,82,30.13,15.0,Calm,Calm,-,N/A,,Partly Cloudy,0,2013-09-27 06:00:00
3:00 AM,50.0,46.4,87,30.14,15.0,South,2.3,-,N/A,,Clear,190,2013-09-27 07:00:00
4:00 AM,48.2,46.4,93,30.15,15.0,SSE,2.3,-,N/A,,Clear,150,2013-09-27 08:00:00
5:00 AM,46.4,46.4,100,30.17,15.0,Calm,Calm,-,N/A,,Clear,0,2013-09-27 09:00:00
6:00 AM,46.4,44.6,93,30.17,15.0,SE,3.5,-,N/A,,Clear,130,2013-09-27 10:00:00
7:00 AM,46.4,44.6,93,30.18,15.0,SE,2.3,-,N/A,Fog,Shallow Fog,130,2013-09-27 11:00:00
8:00 AM,46,45,94,30.19,15,ESE,3.5,,,Fog,Patches of Fog,120,2013-09-27 12:00:00
8:00 AM,46.4,44.6,93,30.19,15.0,ESE,3.5,-,N/A,Fog,Shallow Fog,120,2013-09-27 12:00:00
8:40 AM,-9999,-9999,N/A,-9999,15.0,ESE,3.5,-,N/A,,Clear,120,2013-09-27 12:40:00
9:00 AM,51.8,48.2,88,30.19,15.0,SSE,3.5,-,N/A,,Partly Cloudy,150,2013-09-27 13:00:00
10:00 AM,57.2,46.4,67,30.19,15.0,SSE,6.9,-,N/A,,Clear,160,2013-09-27 14:00:00
11:00 AM,62.6,50.0,63,30.17,15.0,South,5.8,-,N/A,,Clear,170,2013-09-27 15:00:00
12:00 PM,68.0,50.0,52,30.16,15.0,South,8.1,-,N/A,,Clear,170,2013-09-27 16:00:00
1:00 PM,71.6,46.4,41,30.14,15.0,South,8.1,-,N/A,,Partly Cloudy,180,2013-09-27 17:00:00
2:00 PM,74,46,26,30.12,15,South,15.0,,,,Clear,180,2013-09-27 18:00:00
2:00 PM,73.4,46.4,38,30.12,15.0,South,15.0,-,N/A,,Partly Cloudy,180,2013-09-27 18:00:00
3:00 PM,77.0,44.6,32,30.10,15.0,South,12.7,-,N/A,,Partly Cloudy,190,2013-09-27 19:00:00
4:00 PM,78.8,46.4,32,30.09,15.0,South,11.5,-,N/A,,Partly Cloudy,190,2013-09-27 20:00:00
5:00 PM,78.8,44.6,30,30.08,15.0,South,15.0,-,N/A,,Partly Cloudy,170,2013-09-27 21:00:00
6:00 PM,77.0,46.4,34,30.08,15.0,South,6.9,-,N/A,,Partly Cloudy,180,2013-09-27 22:00:00
7:00 PM,69.8,50.0,49,30.08,15.0,SSE,6.9,-,N/A,,Scattered Clouds,160,2013-09-27 23:00:00
8:00 PM,64,49,49,30.09,15,SSE,6.9,,,,Scattered Clouds,150,2013-09-28 00:00:00
8:00 PM,64.4,50.0,59,30.09,15.0,SSE,6.9,-,N/A,,Mostly Cloudy,150,2013-09-28 00:00:00
9:00 PM,60.8,48.2,63,30.09,15.0,SSE,5.8,-,N/A,,Mostly Cloudy,150,2013-09-28 01:00:00
10:00 PM,60.8,46.4,59,30.10,15.0,SSE,9.2,-,N/A,,Scattered Clouds,150,2013-09-28 02:00:00
11:00 PM,60.8,46.4,59,30.09,15.0,South,9.2,-,N/A,,Partly Cloudy,170,2013-09-28 03:00:00